Home   Weather   Eberswalde   Past weeks

Flag for Germany Past Weather in Eberswalde, Brandenburg, Germany — Yesterday and Last 2 Weeks

Now
43 °F

Passing clouds.


Feels Like: 36 °F
Forecast: 46 / 52 °F
Wind: 13 mph from East

Location: Berlin-Tegel

Current Time: May 1, 2017 at 8:36:50 am

Latest Report: May 1, 2017 at 7:50 am


Visibility: N/A

Pressure: 30.01 "Hg

Humidity: 76%

Dew Point: 36 °F

Location of EberswaldeLocation

Past Weather in Eberswalde — Graph

°F

Eberswalde Temperature Yesterday

Maximum temperature yesterday: 57 °F (at 3:50 pm)
Minimum temperature yesterday: 34 °F (at 12:50 am)
Average temperature yesterday: 46 °F

High & Low Weather Summary for the Past Weeks

 TemperatureHumidityPressure
High59 °F (Apr 21, 2:50 pm)100% (Apr 17, 4:20 am)30.60 "Hg (Apr 17, 4:20 am)
Low28 °F (Apr 20, 4:20 am)33% (Apr 27, 3:20 pm)29.56 "Hg (Apr 25, 5:50 am)
Average44 °F67%30.07 "Hg
* Reported Apr 16 7:20 am — May 1 7:20 am, Eberswalde, Weather by CustomWeather, © 2017

Note: Actual official high and low records may vary slightly from our data, if they occured in-between our weather recording intervals... More about our weather records

Advertising

Eberswalde Weather History for the Previous 24 Hours

Scroll right to see more
 ConditionsComfort  
Time TempWeatherWind HumidityBarometerVisibility
7:20 am
Mon, May 1
43 °FPassing clouds.13 mph76%30.01 "HgN/A
6:50 am43 °FPassing clouds.13 mph76%30.01 "HgN/A
6:20 am41 °FPassing clouds.12 mph76%30.01 "HgN/A
5:50 am41 °FPassing clouds.12 mph76%30.01 "HgN/A
5:20 am41 °FPassing clouds.13 mph76%30.01 "HgN/A
4:50 am41 °FPassing clouds.12 mph76%30.01 "HgN/A
4:20 am43 °FPassing clouds.10 mph71%30.01 "HgN/A
3:50 am43 °FPassing clouds.10 mph71%30.04 "HgN/A
3:20 am43 °FPassing clouds.14 mph71%30.04 "HgN/A
2:20 am45 °FClear.13 mph61%30.04 "Hg10 mi
1:50 am45 °FPassing clouds.15 mph61%30.04 "HgN/A
12:50 am45 °FClear.14 mph66%30.07 "Hg10 mi
12:20 am45 °FPassing clouds.15 mph66%30.07 "HgN/A
11:50 pm
Sun, Apr 30
46 °FPassing clouds.14 mph62%30.07 "HgN/A
11:20 pm46 °FPassing clouds.14 mph62%30.07 "HgN/A
10:50 pm48 °FPassing clouds.17 mph58%30.07 "HgN/A
10:20 pm48 °FPassing clouds.18 mph58%30.07 "HgN/A
9:50 pm48 °FClear.15 mph54%30.07 "Hg10 mi
9:20 pm50 °FPassing clouds.15 mph47%30.04 "HgN/A
8:50 pm50 °FPassing clouds.15 mph47%30.04 "HgN/A
8:20 pm52 °FPassing clouds.14 mph44%30.04 "HgN/A
7:50 pm52 °FPassing clouds.16 mph44%30.04 "HgN/A
7:20 pm54 °FPassing clouds.16 mph44%30.04 "HgN/A
6:50 pm54 °FSunny.16 mph44%30.04 "Hg10 mi
6:20 pm55 °FPassing clouds.20 mph38%30.07 "HgN/A
5:50 pm55 °FPassing clouds.14 mph38%30.07 "HgN/A
5:20 pm55 °FPassing clouds.18 mph36%30.07 "HgN/A
4:50 pm55 °FPassing clouds.17 mph36%30.07 "HgN/A
4:20 pm55 °FPassing clouds.18 mph36%30.09 "HgN/A
3:50 pm57 °FPassing clouds.14 mph36%30.09 "HgN/A
3:20 pm55 °FPassing clouds.13 mph38%30.09 "HgN/A
2:50 pm55 °FPassing clouds.14 mph41%30.12 "HgN/A
2:20 pm55 °FPassing clouds.14 mph41%30.12 "HgN/A
1:50 pm54 °FPassing clouds.13 mph44%30.12 "HgN/A
1:20 pm54 °FPassing clouds.16 mph44%30.15 "HgN/A
12:50 pm54 °FPassing clouds.15 mph51%30.15 "HgN/A
12:20 pm52 °FPassing clouds.14 mph50%30.15 "HgN/A
11:50 am52 °FPassing clouds.9 mph54%30.15 "HgN/A
11:20 am48 °FScattered clouds.12 mph58%30.18 "HgN/A
10:50 am48 °FScattered clouds.14 mph58%30.18 "HgN/A
10:20 am48 °FPassing clouds.12 mph62%30.18 "HgN/A
9:50 am48 °FPassing clouds.12 mph62%30.18 "HgN/A
9:20 am46 °FPassing clouds.12 mph66%30.18 "HgN/A
8:50 am45 °FPassing clouds.9 mph71%30.18 "HgN/A
8:20 am45 °FSunny.12 mph71%30.18 "Hg10 mi
Weather by CustomWeather, © 2017

See weather overviewHow to use our weather pages